カタログに戻る

PEGASUS DEB

運用中PO
NORAD 24197·DEBRIS·🇺🇸 United States

打ち上げ May 19, 1994 から Vandenberg Space Force Base

Loading…

次のパス (今後24時間)

TLE

最新Source: Space-Track

元期: Sep 14, 2026, 04:49 UTC

1 24197U 94029JY  26257.20071937  .00002594  00000-0  24452-3 0  9998
2 24197  82.0878 217.6006 0071877  18.9089  41.5991 14.91458568710014

AllMySatでPEGASUS DEBをリアルタイム追跡

Download on the App Store